Home   Weather   Rhodes   Past weeks

Flag for Greece Past Weather in Rhodes, Rhodes, Greece — Yesterday and Last 2 Weeks

Now
61 °F

Clear.


Feels Like: 61 °F
Forecast: 63 / 70 °F
Wind: No wind

Location: Rhodes Airport

Current Time: Apr 30, 2017 at 6:25:36 am

Latest Report: Apr 30, 2017 at 5:50 am


Visibility: 10 mi

Pressure: 29.83 "Hg

Humidity: 55%

Dew Point: 45 °F

Location of RhodesLocation

Past Weather in Rhodes — Graph

°F

Rhodes Temperature Yesterday

Maximum temperature yesterday: 73 °F (at 2:50 pm)
Minimum temperature yesterday: 61 °F (at 3:50 am)
Average temperature yesterday: 67 °F

High & Low Weather Summary for the Past Weeks

 TemperatureHumidityPressure
High73 °F (Apr 27, 4:50 pm)100% (Apr 16, 6:20 am)30.15 "Hg (Apr 16, 6:20 am)
Low54 °F (Apr 22, 11:50 pm)39% (Apr 23, 3:50 pm)29.83 "Hg (Apr 18, 3:50 am)
Average63 °F69%29.99 "Hg
* Reported Apr 15 5:20 am — Apr 30 5:20 am, Rhodes, Weather by CustomWeather, © 2017

Note: Actual official high and low records may vary slightly from our data, if they occured in-between our weather recording intervals... More about our weather records

Advertising

Rhodes Weather History for the Previous 24 Hours

Scroll right to see more
 ConditionsComfort  
Time TempWeatherWind HumidityBarometerVisibility
5:20 am
Sun, Apr 30
59 °FClear.3 mph48%29.83 "Hg10 mi
4:50 am59 °FClear.1 mph48%29.83 "Hg10 mi
4:20 am59 °FClear.1 mph48%29.83 "Hg10 mi
3:50 am59 °FClear.1 mph48%29.86 "Hg10 mi
3:20 am59 °FClear.1 mph48%29.83 "Hg10 mi
2:50 am59 °FClear.3 mph48%29.83 "Hg10 mi
2:20 am61 °FClear.2 mph59%29.83 "Hg10 mi
1:50 am61 °FClear.1 mph59%29.86 "Hg10 mi
1:20 am61 °FClear.No wind59%29.86 "Hg10 mi
12:50 am61 °FClear.1 mph55%29.86 "Hg10 mi
12:20 am61 °FClear.2 mph55%29.86 "Hg10 mi
11:50 pm
Sat, Apr 29
61 °FClear.2 mph55%29.89 "Hg10 mi
11:20 pm63 °FClear.1 mph64%29.89 "Hg10 mi
10:20 pm63 °FClear.2 mph68%29.89 "Hg10 mi
9:50 pm64 °FClear.2 mph56%29.89 "Hg10 mi
9:20 pm68 °FClear.2 mph69%29.89 "Hg10 mi
8:50 pm68 °FClear.2 mph69%29.89 "Hg10 mi
8:20 pm68 °FClear.6 mph69%29.89 "Hg10 mi
7:50 pm68 °FSunny.6 mph69%29.89 "Hg10 mi
7:20 pm70 °FSunny.6 mph64%29.89 "Hg10 mi
6:50 pm70 °FSunny.6 mph64%29.89 "Hg10 mi
6:20 pm70 °FSunny.6 mph60%29.89 "Hg10 mi
5:50 pm72 °FSunny.7 mph57%29.89 "Hg10 mi
5:20 pm73 °FSunny.6 mph50%29.92 "Hg10 mi
4:50 pm73 °FSunny.7 mph50%29.92 "Hg10 mi
4:20 pm73 °FSunny.7 mph50%29.92 "Hg10 mi
3:20 pm73 °FSunny.8 mph50%29.92 "Hg10 mi
2:50 pm73 °FSunny.9 mph53%29.92 "Hg10 mi
2:20 pm72 °FSunny.7 mph57%29.92 "Hg10 mi
1:50 pm72 °FSunny.8 mph57%29.92 "Hg10 mi
1:20 pm72 °FSunny.7 mph57%29.92 "Hg10 mi
12:50 pm70 °FSunny.7 mph60%29.92 "Hg10 mi
12:20 pm70 °FSunny.9 mph60%29.95 "Hg10 mi
11:50 am70 °FSunny.10 mph60%29.95 "Hg10 mi
11:20 am68 °FSunny.13 mph69%29.95 "Hg10 mi
10:20 am68 °FSunny.10 mph69%29.92 "Hg10 mi
9:50 am66 °FSunny.10 mph60%29.92 "Hg10 mi
9:20 am66 °FSunny.8 mph60%29.92 "Hg10 mi
8:50 am66 °FSunny.8 mph60%29.92 "Hg10 mi
8:20 am64 °FSunny.1 mph56%29.92 "Hg10 mi
7:50 am64 °FSunny.1 mph56%29.92 "Hg10 mi
7:20 am63 °FSunny.No wind59%29.92 "Hg10 mi
6:50 am63 °FSunny.No wind59%29.92 "Hg10 mi
6:20 am63 °FSunny.No wind59%29.92 "Hg10 mi
Weather by CustomWeather, © 2017

See weather overviewHow to use our weather pages